<?xml version="1.0" encoding="UTF-8" standalone="no" ?>
<gpx xmlns="http://www.topografix.com/GPX/1/1" xmlns:xsi="http://www.w3.org/2001/XMLSchema-instance" xsi:schemaLocation="http://www.topografix.com/GPX/1/1 http://www.topografix.com/GPX/1/1/gpx.xsd" version="1.1" creator="VisuGPX - https://www.visugpx.com">
  <metadata>
    <name>Rando de la pomme</name>
    <desc><![CDATA[25 km de la rando de la pomme Objat (19)]]></desc>
  </metadata>
  <trk>
    <name><![CDATA[Rando de la pomme]]></name>
    <trkseg>
      <trkpt lat="45.25977" lon="1.41003">
        <ele>118</ele>
        <time>2011-09-04T06:33:48Z</time>
      </trkpt>
      <trkpt lat="45.2617" lon="1.41033">
        <ele>122</ele>
        <time>2011-09-04T06:33:48Z</time>
      </trkpt>
      <trkpt lat="45.26266" lon="1.40995">
        <ele>122</ele>
        <time>2011-09-04T06:33:48Z</time>
      </trkpt>
      <trkpt lat="45.2628" lon="1.41269">
        <ele>122</ele>
        <time>2011-09-04T06:33:48Z</time>
      </trkpt>
      <trkpt lat="45.26327" lon="1.41475">
        <ele>131</ele>
        <time>2011-09-04T06:33:48Z</time>
      </trkpt>
      <trkpt lat="45.26396" lon="1.41692">
        <ele>148</ele>
        <time>2011-09-04T06:33:48Z</time>
      </trkpt>
      <trkpt lat="45.2642" lon="1.41947">
        <ele>161</ele>
        <time>2011-09-04T06:33:48Z</time>
      </trkpt>
      <trkpt lat="45.26441" lon="1.4218">
        <ele>175</ele>
        <time>2011-09-04T06:33:48Z</time>
      </trkpt>
      <trkpt lat="45.26493" lon="1.42421">
        <ele>193</ele>
        <time>2011-09-04T06:33:48Z</time>
      </trkpt>
      <trkpt lat="45.2657" lon="1.4264">
        <ele>223</ele>
        <time>2011-09-04T06:33:48Z</time>
      </trkpt>
      <trkpt lat="45.26527" lon="1.42861">
        <ele>223</ele>
        <time>2011-09-04T06:33:48Z</time>
      </trkpt>
      <trkpt lat="45.26659" lon="1.43018">
        <ele>211</ele>
        <time>2011-09-04T06:33:48Z</time>
      </trkpt>
      <trkpt lat="45.26746" lon="1.4322">
        <ele>190</ele>
        <time>2011-09-04T06:33:48Z</time>
      </trkpt>
      <trkpt lat="45.26832" lon="1.43498">
        <ele>177</ele>
        <time>2011-09-04T06:33:48Z</time>
      </trkpt>
      <trkpt lat="45.26838" lon="1.43787">
        <ele>160</ele>
        <time>2011-09-04T06:33:48Z</time>
      </trkpt>
      <trkpt lat="45.26835" lon="1.44082">
        <ele>135</ele>
        <time>2011-09-04T06:33:48Z</time>
      </trkpt>
      <trkpt lat="45.26932" lon="1.44254">
        <ele>128</ele>
        <time>2011-09-04T06:33:48Z</time>
      </trkpt>
      <trkpt lat="45.26998" lon="1.44384">
        <ele>124</ele>
        <time>2011-09-04T06:33:48Z</time>
      </trkpt>
      <trkpt lat="45.27064" lon="1.44576">
        <ele>122</ele>
        <time>2011-09-04T06:33:48Z</time>
      </trkpt>
      <trkpt lat="45.2723" lon="1.4454">
        <ele>126</ele>
        <time>2011-09-04T06:33:48Z</time>
      </trkpt>
      <trkpt lat="45.27332" lon="1.44411">
        <ele>126</ele>
        <time>2011-09-04T06:33:48Z</time>
      </trkpt>
      <trkpt lat="45.27475" lon="1.44283">
        <ele>131</ele>
        <time>2011-09-04T06:33:48Z</time>
      </trkpt>
      <trkpt lat="45.27618" lon="1.44133">
        <ele>132</ele>
        <time>2011-09-04T06:33:48Z</time>
      </trkpt>
      <trkpt lat="45.2774" lon="1.4419">
        <ele>143</ele>
        <time>2011-09-04T06:33:48Z</time>
      </trkpt>
      <trkpt lat="45.27801" lon="1.44427">
        <ele>161</ele>
        <time>2011-09-04T06:33:48Z</time>
      </trkpt>
      <trkpt lat="45.27846" lon="1.44662">
        <ele>175</ele>
        <time>2011-09-04T06:33:48Z</time>
      </trkpt>
      <trkpt lat="45.27961" lon="1.4485">
        <ele>193</ele>
        <time>2011-09-04T06:33:48Z</time>
      </trkpt>
      <trkpt lat="45.2813" lon="1.44874">
        <ele>204</ele>
        <time>2011-09-04T06:33:48Z</time>
      </trkpt>
      <trkpt lat="45.28299" lon="1.44892">
        <ele>209</ele>
        <time>2011-09-04T06:33:48Z</time>
      </trkpt>
      <trkpt lat="45.28466" lon="1.44976">
        <ele>230</ele>
        <time>2011-09-04T06:33:48Z</time>
      </trkpt>
      <trkpt lat="45.28459" lon="1.45211">
        <ele>247</ele>
        <time>2011-09-04T06:33:48Z</time>
      </trkpt>
      <trkpt lat="45.28404" lon="1.45489">
        <ele>254</ele>
        <time>2011-09-04T06:33:48Z</time>
      </trkpt>
      <trkpt lat="45.28521" lon="1.45622">
        <ele>278</ele>
        <time>2011-09-04T06:33:48Z</time>
      </trkpt>
      <trkpt lat="45.28593" lon="1.45719">
        <ele>294</ele>
        <time>2011-09-04T06:33:48Z</time>
      </trkpt>
      <trkpt lat="45.28603" lon="1.45839">
        <ele>306</ele>
        <time>2011-09-04T06:33:48Z</time>
      </trkpt>
      <trkpt lat="45.28719" lon="1.45988">
        <ele>317</ele>
        <time>2011-09-04T06:33:48Z</time>
      </trkpt>
      <trkpt lat="45.28883" lon="1.46077">
        <ele>338</ele>
        <time>2011-09-04T06:33:48Z</time>
      </trkpt>
      <trkpt lat="45.2901" lon="1.46059">
        <ele>350</ele>
        <time>2011-09-04T06:33:48Z</time>
      </trkpt>
      <trkpt lat="45.29168" lon="1.46023">
        <ele>358</ele>
        <time>2011-09-04T06:33:48Z</time>
      </trkpt>
      <trkpt lat="45.29229" lon="1.46267">
        <ele>369</ele>
        <time>2011-09-04T06:33:48Z</time>
      </trkpt>
      <trkpt lat="45.29362" lon="1.4639">
        <ele>361</ele>
        <time>2011-09-04T06:33:48Z</time>
      </trkpt>
      <trkpt lat="45.29521" lon="1.46378">
        <ele>362</ele>
        <time>2011-09-04T06:33:48Z</time>
      </trkpt>
      <trkpt lat="45.29648" lon="1.4624">
        <ele>366</ele>
        <time>2011-09-04T06:33:48Z</time>
      </trkpt>
      <trkpt lat="45.29697" lon="1.46102">
        <ele>371</ele>
        <time>2011-09-04T06:33:48Z</time>
      </trkpt>
      <trkpt lat="45.29786" lon="1.46039">
        <ele>378</ele>
        <time>2011-09-04T06:33:48Z</time>
      </trkpt>
      <trkpt lat="45.29947" lon="1.46005">
        <ele>374</ele>
        <time>2011-09-04T06:33:48Z</time>
      </trkpt>
      <trkpt lat="45.30107" lon="1.4598">
        <ele>371</ele>
        <time>2011-09-04T06:33:48Z</time>
      </trkpt>
      <trkpt lat="45.30198" lon="1.45939">
        <ele>375</ele>
        <time>2011-09-04T06:33:48Z</time>
      </trkpt>
      <trkpt lat="45.30345" lon="1.45823">
        <ele>372</ele>
        <time>2011-09-04T06:33:48Z</time>
      </trkpt>
      <trkpt lat="45.30497" lon="1.45767">
        <ele>361</ele>
        <time>2011-09-04T06:33:48Z</time>
      </trkpt>
      <trkpt lat="45.3066" lon="1.45762">
        <ele>346</ele>
        <time>2011-09-04T06:33:48Z</time>
      </trkpt>
      <trkpt lat="45.30703" lon="1.45539">
        <ele>357</ele>
        <time>2011-09-04T06:33:48Z</time>
      </trkpt>
      <trkpt lat="45.30642" lon="1.45373">
        <ele>364</ele>
        <time>2011-09-04T06:33:48Z</time>
      </trkpt>
      <trkpt lat="45.30549" lon="1.45175">
        <ele>375</ele>
        <time>2011-09-04T06:33:48Z</time>
      </trkpt>
      <trkpt lat="45.30606" lon="1.44909">
        <ele>386</ele>
        <time>2011-09-04T06:33:48Z</time>
      </trkpt>
      <trkpt lat="45.30739" lon="1.44838">
        <ele>388</ele>
        <time>2011-09-04T06:33:48Z</time>
      </trkpt>
      <trkpt lat="45.30662" lon="1.44659">
        <ele>382</ele>
        <time>2011-09-04T06:33:48Z</time>
      </trkpt>
      <trkpt lat="45.30546" lon="1.4449">
        <ele>386</ele>
        <time>2011-09-04T06:33:48Z</time>
      </trkpt>
      <trkpt lat="45.30427" lon="1.44313">
        <ele>385</ele>
        <time>2011-09-04T06:33:48Z</time>
      </trkpt>
      <trkpt lat="45.30323" lon="1.44132">
        <ele>385</ele>
        <time>2011-09-04T06:33:48Z</time>
      </trkpt>
      <trkpt lat="45.30195" lon="1.43995">
        <ele>376</ele>
        <time>2011-09-04T06:33:48Z</time>
      </trkpt>
      <trkpt lat="45.30067" lon="1.43847">
        <ele>357</ele>
        <time>2011-09-04T06:33:48Z</time>
      </trkpt>
      <trkpt lat="45.30113" lon="1.43736">
        <ele>354</ele>
        <time>2011-09-04T06:33:48Z</time>
      </trkpt>
      <trkpt lat="45.30263" lon="1.43795">
        <ele>364</ele>
        <time>2011-09-04T06:33:48Z</time>
      </trkpt>
      <trkpt lat="45.30379" lon="1.4375">
        <ele>359</ele>
        <time>2011-09-04T06:33:48Z</time>
      </trkpt>
      <trkpt lat="45.30529" lon="1.43761">
        <ele>359</ele>
        <time>2011-09-04T06:33:48Z</time>
      </trkpt>
      <trkpt lat="45.30674" lon="1.4386">
        <ele>358</ele>
        <time>2011-09-04T06:33:48Z</time>
      </trkpt>
      <trkpt lat="45.30783" lon="1.43955">
        <ele>355</ele>
        <time>2011-09-04T06:33:48Z</time>
      </trkpt>
      <trkpt lat="45.30824" lon="1.43732">
        <ele>352</ele>
        <time>2011-09-04T06:33:48Z</time>
      </trkpt>
      <trkpt lat="45.30854" lon="1.43521">
        <ele>357</ele>
        <time>2011-09-04T06:33:48Z</time>
      </trkpt>
      <trkpt lat="45.30876" lon="1.43371">
        <ele>355</ele>
        <time>2011-09-04T06:33:48Z</time>
      </trkpt>
      <trkpt lat="45.31018" lon="1.43327">
        <ele>345</ele>
        <time>2011-09-04T06:33:48Z</time>
      </trkpt>
      <trkpt lat="45.31174" lon="1.43294">
        <ele>330</ele>
        <time>2011-09-04T06:33:48Z</time>
      </trkpt>
      <trkpt lat="45.31329" lon="1.4325">
        <ele>318</ele>
        <time>2011-09-04T06:33:48Z</time>
      </trkpt>
      <trkpt lat="45.31476" lon="1.43171">
        <ele>318</ele>
        <time>2011-09-04T06:33:48Z</time>
      </trkpt>
      <trkpt lat="45.31629" lon="1.43093">
        <ele>291</ele>
        <time>2011-09-04T06:33:48Z</time>
      </trkpt>
      <trkpt lat="45.31734" lon="1.42956">
        <ele>246</ele>
        <time>2011-09-04T06:33:48Z</time>
      </trkpt>
      <trkpt lat="45.31693" lon="1.42899">
        <ele>227</ele>
        <time>2011-09-04T06:33:48Z</time>
      </trkpt>
      <trkpt lat="45.31557" lon="1.42861">
        <ele>209</ele>
        <time>2011-09-04T06:33:48Z</time>
      </trkpt>
      <trkpt lat="45.3148" lon="1.42705">
        <ele>193</ele>
        <time>2011-09-04T06:33:48Z</time>
      </trkpt>
      <trkpt lat="45.31483" lon="1.42697">
        <ele>191</ele>
        <time>2011-09-04T06:33:48Z</time>
      </trkpt>
      <trkpt lat="45.31592" lon="1.42649">
        <ele>184</ele>
        <time>2011-09-04T06:33:48Z</time>
      </trkpt>
      <trkpt lat="45.3169" lon="1.42684">
        <ele>187</ele>
        <time>2011-09-04T06:33:48Z</time>
      </trkpt>
      <trkpt lat="45.31577" lon="1.42514">
        <ele>188</ele>
        <time>2011-09-04T06:33:48Z</time>
      </trkpt>
      <trkpt lat="45.31496" lon="1.42322">
        <ele>187</ele>
        <time>2011-09-04T06:33:48Z</time>
      </trkpt>
      <trkpt lat="45.31522" lon="1.42103">
        <ele>190</ele>
        <time>2011-09-04T06:33:48Z</time>
      </trkpt>
      <trkpt lat="45.31457" lon="1.41884">
        <ele>181</ele>
        <time>2011-09-04T06:33:48Z</time>
      </trkpt>
      <trkpt lat="45.31378" lon="1.4167">
        <ele>170</ele>
        <time>2011-09-04T06:33:48Z</time>
      </trkpt>
      <trkpt lat="45.3123" lon="1.41715">
        <ele>168</ele>
        <time>2011-09-04T06:33:48Z</time>
      </trkpt>
      <trkpt lat="45.31147" lon="1.41744">
        <ele>167</ele>
        <time>2011-09-04T06:33:48Z</time>
      </trkpt>
      <trkpt lat="45.30988" lon="1.41697">
        <ele>167</ele>
        <time>2011-09-04T06:33:48Z</time>
      </trkpt>
      <trkpt lat="45.30834" lon="1.41723">
        <ele>168</ele>
        <time>2011-09-04T06:33:48Z</time>
      </trkpt>
      <trkpt lat="45.30687" lon="1.41633">
        <ele>165</ele>
        <time>2011-09-04T06:33:48Z</time>
      </trkpt>
      <trkpt lat="45.30538" lon="1.41575">
        <ele>153</ele>
        <time>2011-09-04T06:33:48Z</time>
      </trkpt>
      <trkpt lat="45.30385" lon="1.41638">
        <ele>151</ele>
        <time>2011-09-04T06:33:48Z</time>
      </trkpt>
      <trkpt lat="45.30312" lon="1.41736">
        <ele>153</ele>
        <time>2011-09-04T06:33:48Z</time>
      </trkpt>
      <trkpt lat="45.30321" lon="1.41546">
        <ele>146</ele>
        <time>2011-09-04T06:33:48Z</time>
      </trkpt>
      <trkpt lat="45.302" lon="1.41436">
        <ele>141</ele>
        <time>2011-09-04T06:33:48Z</time>
      </trkpt>
      <trkpt lat="45.30045" lon="1.41376">
        <ele>140</ele>
        <time>2011-09-04T06:33:48Z</time>
      </trkpt>
      <trkpt lat="45.29966" lon="1.4143">
        <ele>140</ele>
        <time>2011-09-04T06:33:48Z</time>
      </trkpt>
      <trkpt lat="45.29845" lon="1.4141">
        <ele>139</ele>
        <time>2011-09-04T06:33:48Z</time>
      </trkpt>
      <trkpt lat="45.2969" lon="1.41336">
        <ele>137</ele>
        <time>2011-09-04T06:33:48Z</time>
      </trkpt>
      <trkpt lat="45.29556" lon="1.41237">
        <ele>145</ele>
        <time>2011-09-04T06:33:48Z</time>
      </trkpt>
      <trkpt lat="45.29401" lon="1.41277">
        <ele>140</ele>
        <time>2011-09-04T06:33:48Z</time>
      </trkpt>
      <trkpt lat="45.29243" lon="1.41224">
        <ele>138</ele>
        <time>2011-09-04T06:33:48Z</time>
      </trkpt>
      <trkpt lat="45.29088" lon="1.41159">
        <ele>138</ele>
        <time>2011-09-04T06:33:48Z</time>
      </trkpt>
      <trkpt lat="45.2894" lon="1.41123">
        <ele>141</ele>
        <time>2011-09-04T06:33:48Z</time>
      </trkpt>
      <trkpt lat="45.28834" lon="1.40967">
        <ele>161</ele>
        <time>2011-09-04T06:33:48Z</time>
      </trkpt>
      <trkpt lat="45.28711" lon="1.4083">
        <ele>167</ele>
        <time>2011-09-04T06:33:48Z</time>
      </trkpt>
      <trkpt lat="45.28648" lon="1.40756">
        <ele>166</ele>
        <time>2011-09-04T06:33:48Z</time>
      </trkpt>
      <trkpt lat="45.2853" lon="1.40609">
        <ele>171</ele>
        <time>2011-09-04T06:33:48Z</time>
      </trkpt>
      <trkpt lat="45.28368" lon="1.40628">
        <ele>172</ele>
        <time>2011-09-04T06:33:48Z</time>
      </trkpt>
      <trkpt lat="45.28203" lon="1.40593">
        <ele>172</ele>
        <time>2011-09-04T06:33:48Z</time>
      </trkpt>
      <trkpt lat="45.28046" lon="1.40572">
        <ele>171</ele>
        <time>2011-09-04T06:33:48Z</time>
      </trkpt>
      <trkpt lat="45.27911" lon="1.40446">
        <ele>179</ele>
        <time>2011-09-04T06:33:48Z</time>
      </trkpt>
      <trkpt lat="45.27863" lon="1.40599">
        <ele>165</ele>
        <time>2011-09-04T06:33:48Z</time>
      </trkpt>
      <trkpt lat="45.27766" lon="1.4074">
        <ele>158</ele>
        <time>2011-09-04T06:33:48Z</time>
      </trkpt>
      <trkpt lat="45.27604" lon="1.40779">
        <ele>156</ele>
        <time>2011-09-04T06:33:48Z</time>
      </trkpt>
      <trkpt lat="45.2745" lon="1.40734">
        <ele>149</ele>
        <time>2011-09-04T06:33:48Z</time>
      </trkpt>
      <trkpt lat="45.27293" lon="1.40667">
        <ele>146</ele>
        <time>2011-09-04T06:33:48Z</time>
      </trkpt>
      <trkpt lat="45.27142" lon="1.40653">
        <ele>143</ele>
        <time>2011-09-04T06:33:48Z</time>
      </trkpt>
      <trkpt lat="45.26978" lon="1.40663">
        <ele>141</ele>
        <time>2011-09-04T06:33:48Z</time>
      </trkpt>
      <trkpt lat="45.26823" lon="1.40671">
        <ele>137</ele>
        <time>2011-09-04T06:33:48Z</time>
      </trkpt>
      <trkpt lat="45.26664" lon="1.40625">
        <ele>137</ele>
        <time>2011-09-04T06:33:48Z</time>
      </trkpt>
      <trkpt lat="45.26511" lon="1.40602">
        <ele>137</ele>
        <time>2011-09-04T06:33:48Z</time>
      </trkpt>
      <trkpt lat="45.26348" lon="1.40555">
        <ele>138</ele>
        <time>2011-09-04T06:33:48Z</time>
      </trkpt>
      <trkpt lat="45.26193" lon="1.40511">
        <ele>137</ele>
        <time>2011-09-04T06:33:48Z</time>
      </trkpt>
      <trkpt lat="45.26073" lon="1.40598">
        <ele>130</ele>
        <time>2011-09-04T06:33:48Z</time>
      </trkpt>
      <trkpt lat="45.26121" lon="1.40791">
        <ele>123</ele>
        <time>2011-09-04T06:33:48Z</time>
      </trkpt>
      <trkpt lat="45.26036" lon="1.40983">
        <ele>119</ele>
        <time>2011-09-04T06:33:48Z</time>
      </trkpt>
      <trkpt lat="45.26004" lon="1.41014">
        <ele>118</ele>
        <time>2011-09-04T06:33:48Z</time>
      </trkpt>
      <trkpt lat="45.25998" lon="1.41012">
        <ele>118</ele>
        <time>2011-09-04T06:33:48Z</time>
      </trkpt>
      <trkpt lat="45.25993" lon="1.4101">
        <ele>118</ele>
        <time>2011-09-04T06:33:48Z</time>
      </trkpt>
      <trkpt lat="45.25988" lon="1.41008">
        <ele>118</ele>
        <time>2011-09-04T06:33:48Z</time>
      </trkpt>
      <trkpt lat="45.25983" lon="1.41005">
        <ele>118</ele>
        <time>2011-09-04T06:33:48Z</time>
      </trkpt>
      <trkpt lat="45.25977" lon="1.41003">
        <ele>118</ele>
        <time>2011-09-04T06:33:48Z</time>
      </trkpt>
      <trkpt lat="45.25972" lon="1.41001">
        <ele>118</ele>
        <time>2011-09-04T06:33:48Z</time>
      </trkpt>
      <trkpt lat="45.25967" lon="1.40999">
        <ele>118</ele>
        <time>2011-09-04T06:33:48Z</time>
      </trkpt>
      <trkpt lat="45.25962" lon="1.40996">
        <ele>118</ele>
        <time>2011-09-04T06:33:48Z</time>
      </trkpt>
      <trkpt lat="45.25957" lon="1.40994">
        <ele>118</ele>
        <time>2011-09-04T06:33:48Z</time>
      </trkpt>
      <trkpt lat="45.25952" lon="1.40991">
        <ele>118</ele>
        <time>2011-09-04T06:33:48Z</time>
      </trkpt>
      <trkpt lat="45.25948" lon="1.40989">
        <ele>118</ele>
        <time>2011-09-04T06:33:48Z</time>
      </trkpt>
      <trkpt lat="45.25944" lon="1.40987">
        <ele>118</ele>
        <time>2011-09-04T06:33:48Z</time>
      </trkpt>
      <trkpt lat="45.2594" lon="1.40985">
        <ele>118</ele>
        <time>2011-09-04T06:33:48Z</time>
      </trkpt>
      <trkpt lat="45.25936" lon="1.40984">
        <ele>118</ele>
        <time>2011-09-04T06:33:48Z</time>
      </trkpt>
      <trkpt lat="45.25933" lon="1.40983">
        <ele>118</ele>
        <time>2011-09-04T06:33:48Z</time>
      </trkpt>
      <trkpt lat="45.25929" lon="1.40983">
        <ele>118</ele>
        <time>2011-09-04T06:33:48Z</time>
      </trkpt>
      <trkpt lat="45.25927" lon="1.40983">
        <ele>118</ele>
        <time>2011-09-04T06:33:48Z</time>
      </trkpt>
      <trkpt lat="45.25924" lon="1.40982">
        <ele>118</ele>
        <time>2011-09-04T06:33:48Z</time>
      </trkpt>
      <trkpt lat="45.25922" lon="1.40981">
        <ele>118</ele>
        <time>2011-09-04T06:33:48Z</time>
      </trkpt>
      <trkpt lat="45.25919" lon="1.40981">
        <ele>118</ele>
        <time>2011-09-04T06:33:48Z</time>
      </trkpt>
      <trkpt lat="45.25917" lon="1.40981">
        <ele>118</ele>
        <time>2011-09-04T06:33:48Z</time>
      </trkpt>
      <trkpt lat="45.25917" lon="1.40981">
        <ele>118</ele>
        <time>2011-09-04T06:33:48Z</time>
      </trkpt>
    </trkseg>
  </trk>
</gpx>